LINCON Weather Reports


Display with metric or nautical units.
time (UTC)temp
F
wind
direction
speed
MPH
gust
MPH
rain 1hr
in
rain 24hr
in
rain mn
in
humidity
%
barometer
mb
20260831094726 57 0 0.0 0.0 0.00 0.00 0.00 95 1008.6
20260831094226 57 0 0.0 0.0 0.00 0.00 0.00 95 1008.7
20260831093726 57 0 0.0 0.0 0.00 0.00 0.00 95 1008.8
20260831093226 57 0 0.0 0.0 0.00 0.00 0.00 95 1008.8
20260831092728 57 0 0.0 0.0 0.00 0.00 0.00 95 1008.8
20260831092226 57 0 0.0 0.0 0.00 0.00 0.00 94 1008.9
20260831091726 57 0 0.0 0.0 0.00 0.00 0.00 94 1008.9
20260831091226 57 0 0.0 0.0 0.00 0.00 0.00 94 1009.0
20260831090726 57 0 0.0 0.0 0.00 0.00 0.00 94 1009.1
20260831090226 57 0 0.0 0.0 0.00 0.00 0.00 94 1009.1
20260831085726 58 0 0.0 0.0 0.00 0.00 0.00 94 1009.2
20260831085226 58 0 0.0 0.0 0.00 0.00 0.00 93 1009.2
20260831084726 57 0 0.0 0.0 0.00 0.00 0.00 93 1009.3
20260831084226 57 0 0.0 0.0 0.00 0.00 0.00 93 1009.4
20260831083726 57 0 0.0 0.0 0.00 0.00 0.00 94 1009.5
20260831083226 57 0 0.0 0.0 0.00 0.00 0.00 93 1009.6
20260831082726 57 0 0.0 0.0 0.00 0.00 0.00 92 1009.5
20260831082226 57 0 0.0 0.0 0.00 0.00 0.00 91 1009.5
20260831081726 58 0 0.0 0.0 0.00 0.00 0.00 91 1009.5
20260831081448 58 0 0.0 0.0 0.00 0.00 0.00 89 1009.6
20260831081227 58 0 0.0 0.0 0.00 0.00 0.00 89 1009.6
20260831080726 58 0 0.0 0.0 0.00 0.00 0.00 87 1009.6
20260831080226 59 0 0.0 0.0 0.00 0.00 0.00 86 1009.7
20260831075726 59 0 0.0 0.0 0.00 0.00 0.00 86 1009.7
20260831075226 59 0 0.0 0.0 0.00 0.00 0.00 86 1009.8
20260831074726 59 0 0.0 0.0 0.00 0.00 0.00 86 1009.8
20260831074226 59 0 0.0 0.0 0.00 0.00 0.00 85 1009.8
20260831073726 59 0 0.0 0.0 0.00 0.00 0.00 85 1009.8
20260831073226 60 0 0.0 0.0 0.00 0.00 0.00 85 1009.8
20260831072726 60 0 0.0 0.0 0.00 0.00 0.00 85 1009.8
20260831072226 60 0 0.0 0.0 0.00 0.00 0.00 85 1009.9
20260831071726 60 0 0.0 0.0 0.00 0.00 0.00 84 1010.0
20260831071226 60 0 0.0 0.0 0.00 0.00 0.00 84 1010.0
20260831070726 60 0 0.0 0.0 0.00 0.00 0.00 84 1010.1
20260831070226 60 0 0.0 0.0 0.00 0.00 0.00 84 1010.1
20260831065726 60 0 0.0 0.0 0.00 0.00 0.00 84 1010.2
20260831065226 60 0 0.0 0.0 0.00 0.00 0.00 84 1010.3
20260831064726 60 0 0.0 0.0 0.00 0.00 0.00 84 1010.2
20260831064226 60 0 0.0 0.0 0.00 0.00 0.00 84 1010.2
20260831063727 60 0 0.0 0.0 0.00 0.00 0.00 84 1010.3
20260831063226 60 0 0.0 0.0 0.00 0.00 0.00 84 1010.4
20260831062726 60 0 0.0 0.0 0.00 0.00 0.00 84 1010.4
20260831062226 60 0 0.0 0.0 0.00 0.00 0.00 84 1010.5
20260831061726 60 0 0.0 0.0 0.00 0.00 0.00 84 1010.6
20260831061226 60 0 0.0 0.0 0.00 0.00 0.00 84 1010.6
20260831060726 60 0 0.0 0.0 0.00 0.00 0.00 84 1010.6
20260831060226 60 0 0.0 0.0 0.00 0.00 0.00 84 1010.7
20260831055726 60 0 0.0 0.0 0.00 0.00 0.00 83 1010.7
20260831055226 60 0 0.0 0.0 0.00 0.00 0.00 83 1010.7
20260831054726 60 0 0.0 5.0 0.00 0.00 0.00 83 1010.8
20260831054226 60 0 0.0 5.0 0.00 0.00 0.00 82 1010.8
20260831053726 60 77 0.0 5.0 0.00 0.00 0.00 82 1010.8
20260831053226 60 0 1.0 1.0 0.00 0.00 0.00 82 1010.8
20260831052726 60 0 0.0 0.0 0.00 0.00 0.00 82 1011.0
20260831052225 60 0 0.0 0.0 0.00 0.00 0.00 81 1011.1
20260831051726 61 0 0.0 0.0 0.00 0.00 0.00 81 1011.1
20260831051227 61 0 0.0 0.0 0.00 0.00 0.00 80 1011.2
20260831050726 61 0 0.0 0.0 0.00 0.00 0.00 80 1011.2
20260831050225 61 0 0.0 0.0 0.00 0.00 0.00 80 1011.3
20260831045725 61 0 0.0 0.0 0.00 0.00 0.00 80 1011.3
20260831045225 61 0 0.0 0.0 0.00 0.00 0.00 80 1011.4
20260831044725 61 0 0.0 0.0 0.00 0.00 0.00 80 1011.4
20260831044225 61 0 0.0 0.0 0.00 0.00 0.00 80 1011.5
20260831043726 62 0 0.0 0.0 0.00 0.00 0.00 80 1011.5
20260831043225 62 0 0.0 7.0 0.00 0.00 0.00 79 1011.5
20260831042725 62 0 0.0 7.0 0.00 0.00 0.00 79 1011.5
20260831042225 62 345 0.0 7.0 0.00 0.00 0.00 79 1011.5
20260831041725 62 336 3.0 6.0 0.00 0.00 0.00 79 1011.5
20260831041225 62 0 0.0 9.0 0.00 0.00 0.00 79 1011.6
20260831040725 62 344 0.0 9.0 0.00 0.00 0.00 79 1011.6
20260831040225 62 7 1.0 9.0 0.00 0.00 0.00 79 1011.5
20260831035725 62 336 2.0 13.0 0.00 0.00 0.00 79 1011.6
20260831035225 62 331 2.0 13.0 0.00 0.00 0.00 79 1011.6
20260831034725 62 343 6.0 13.0 0.00 0.00 0.00 79 1011.6
20260831034226 62 340 8.0 15.0 0.00 0.00 0.00 78 1011.6
20260831033725 62 334 10.0 15.0 0.00 0.00 0.00 78 1011.6
20260831033225 62 350 7.0 15.0 0.00 0.00 0.00 77 1011.6
20260831032725 62 345 8.0 14.0 0.00 0.00 0.00 77 1011.6
20260831032225 63 333 8.0 14.0 0.00 0.00 0.00 77 1011.6
20260831031727 63 350 7.0 14.0 0.00 0.00 0.00 76 1011.6
20260831031225 63 338 7.0 14.0 0.00 0.00 0.00 76 1011.6
20260831030725 63 345 6.0 14.0 0.00 0.00 0.00 76 1011.6
20260831030225 63 338 7.0 14.0 0.00 0.00 0.00 75 1011.6
20260831025725 63 340 8.0 15.0 0.00 0.00 0.00 75 1011.6
20260831025225 63 333 3.0 15.0 0.00 0.00 0.00 74 1011.7
20260831024725 64 348 5.0 15.0 0.00 0.00 0.00 74 1011.7
20260831024225 64 337 8.0 13.0 0.00 0.00 0.00 74 1011.8
20260831023725 64 343 7.0 13.0 0.00 0.00 0.00 73 1011.8
20260831023226 64 338 6.0 18.0 0.00 0.00 0.00 73 1011.7
20260831022726 64 341 7.0 18.0 0.00 0.00 0.00 73 1011.8
20260831022225 64 343 9.0 18.0 0.00 0.00 0.00 72 1011.8
20260831021725 64 337 11.0 16.0 0.00 0.00 0.00 72 1011.8
20260831021225 65 347 9.0 16.0 0.00 0.00 0.00 71 1011.9
20260831020726 65 350 6.0 18.0 0.00 0.00 0.00 71 1012.0
20260831020226 65 347 9.0 18.0 0.00 0.00 0.00 70 1011.9
20260831015725 65 348 9.0 18.0 0.00 0.00 0.00 70 1012.0
20260831015225 65 341 11.0 19.0 0.00 0.00 0.00 69 1012.1
20260831014727 65 337 8.0 19.0 0.00 0.00 0.00 69 1012.1
20260831014225 65 337 10.0 19.0 0.00 0.00 0.00 67 1012.1
20260831013725 65 340 10.0 19.0 0.00 0.00 0.00 66 1012.2
20260831013225 65 341 10.0 19.0 0.00 0.00 0.00 66 1012.3
20260831012725 66 333 8.0 19.0 0.00 0.00 0.00 66 1012.3
20260831012226 66 341 9.0 20.0 0.00 0.00 0.00 66 1012.4
20260831011726 66 338 10.0 20.0 0.00 0.00 0.00 66 1012.5
20260831011226 66 319 10.0 20.0 0.00 0.00 0.00 66 1012.5
20260831010725 66 352 12.0 25.0 0.00 0.00 0.00 66 1012.6
20260831010225 66 357 13.0 25.0 0.00 0.00 0.00 66 1012.6
20260831005725 66 350 10.0 25.0 0.00 0.00 0.00 66 1012.7
20260831005225 66 333 14.0 25.0 0.00 0.00 0.00 66 1012.8
20260831004726 67 333 12.0 25.0 0.00 0.00 0.00 66 1012.9
20260831004225 67 344 13.0 25.0 0.00 0.00 0.00 66 1013.0
20260831003725 67 324 11.0 24.0 0.00 0.00 0.00 66 1013.0
20260831003225 67 8 13.0 24.0 0.00 0.00 0.00 65 1013.1
20260831002725 67 357 10.0 24.0 0.00 0.00 0.00 65 1013.1
20260831002225 67 322 11.0 19.0 0.00 0.00 0.00 65 1013.2
20260831001725 68 312 13.0 23.0 0.00 0.00 0.00 65 1013.2
20260831001225 68 305 10.0 23.0 0.00 0.00 0.00 65 1013.2
20260831000725 68 333 13.0 23.0 0.00 0.00 0.00 64 1013.2
20260831000226 68 341 13.0 24.0 0.00 0.00 0.00 64 1013.3
20260830235725 68 334 11.0 24.0 0.00 0.00 0.00 64 1013.3
20260830235225 68 316 10.0 24.0 0.00 0.00 0.00 64 1013.3
20260830234726 68 344 15.0 24.0 0.00 0.00 0.00 63 1013.4
20260830234225 69 330 9.0 24.0 0.00 0.00 0.00 63 1013.5
20260830233725 69 326 14.0 24.0 0.00 0.00 0.00 63 1013.5
20260830233225 69 337 13.0 20.0 0.00 0.00 0.00 63 1013.5
20260830232725 69 331 10.0 23.0 0.00 0.00 0.00 62 1013.6
20260830232225 69 315 11.0 23.0 0.00 0.00 0.00 62 1013.7
20260830231725 69 329 11.0 23.0 0.00 0.00 0.00 62 1013.7
20260830231225 69 345 10.0 23.0 0.00 0.00 0.00 62 1013.8
20260830230725 70 344 12.0 19.0 0.00 0.00 0.00 62 1013.8
20260830230225 69 319 12.0 26.0 0.00 0.00 0.00 62 1013.9
20260830225725 69 336 11.0 26.0 0.00 0.00 0.00 62 1014.0
20260830225225 69 345 14.0 26.0 0.00 0.00 0.00 62 1014.1
20260830224725 69 323 19.0 24.0 0.00 0.00 0.00 61 1014.2
20260830224225 70 348 14.0 24.0 0.00 0.00 0.00 61 1014.2
20260830223725 70 341 14.0 24.0 0.00 0.00 0.00 59 1014.2
20260830223225 70 313 15.0 23.0 0.00 0.00 0.00 58 1014.3
20260830222725 71 352 13.0 23.0 0.00 0.00 0.00 58 1014.4
20260830222225 71 343 11.0 23.0 0.00 0.00 0.00 58 1014.4
20260830221725 71 344 13.0 23.0 0.00 0.00 0.00 58 1014.5
20260830221225 71 0 12.0 23.0 0.00 0.00 0.00 58 1014.6
20260830220725 71 344 11.0 22.0 0.00 0.00 0.00 58 1014.6
20260830220225 71 320 11.0 22.0 0.00 0.00 0.00 58 1014.6
20260830215725 72 348 15.0 22.0 0.00 0.00 0.00 57 1014.7
20260830215225 72 350 13.0 21.0 0.00 0.00 0.00 57 1014.7
20260830214725 72 348 12.0 20.0 0.00 0.00 0.00 56 1014.8
20260830214225 72 344 13.0 20.0 0.00 0.00 0.00 57 1014.9
20260830213725 71 343 12.0 23.0 0.00 0.00 0.00 58 1014.9
20260830213225 71 341 13.0 23.0 0.00 0.00 0.00 57 1014.9
20260830212725 72 331 13.0 23.0 0.00 0.00 0.00 57 1015.0
20260830212225 72 327 12.0 22.0 0.00 0.00 0.00 57 1015.0
20260830211725 72 333 14.0 22.0 0.00 0.00 0.00 57 1015.0
20260830211225 72 343 13.0 20.0 0.00 0.00 0.00 58 1015.0
20260830210821 71 331 13.0 24.0 0.00 0.00 0.00 58 1015.1
20260830210725 71 337 11.0 24.0 0.00 0.00 0.00 58 1015.1
20260830210225 71 331 13.0 24.0 0.00 0.00 0.00 58 1015.1
20260830205725 71 348 11.0 24.0 0.00 0.00 0.00 58 1015.2
20260830205225 71 340 14.0 21.0 0.00 0.00 0.00 58 1015.2
20260830204725 71 330 13.0 19.0 0.00 0.00 0.00 57 1015.2
20260830204226 71 355 12.0 19.0 0.00 0.00 0.00 58 1015.3
20260830203725 71 350 8.0 20.0 0.00 0.00 0.00 60 1015.4
20260830203225 70 348 12.0 20.0 0.00 0.00 0.00 60 1015.4
20260830202725 70 347 14.0 20.0 0.00 0.00 0.00 59 1015.4
20260830202225 70 345 12.0 20.0 0.00 0.00 0.00 59 1015.5
20260830201725 70 344 9.0 20.0 0.00 0.00 0.00 61 1015.5
20260830201225 69 327 13.0 20.0 0.00 0.00 0.00 61 1015.5
20260830200725 69 355 9.0 19.0 0.00 0.00 0.00 60 1015.6
20260830200225 69 338 11.0 19.0 0.00 0.00 0.00 59 1015.5
20260830195725 69 333 11.0 19.0 0.00 0.00 0.00 59 1015.6
20260830195225 69 338 10.0 18.0 0.00 0.00 0.00 59 1015.7
20260830194726 69 333 12.0 19.0 0.00 0.00 0.00 58 1015.7
20260830194225 70 336 12.0 19.0 0.00 0.00 0.00 58 1015.8
20260830193725 70 329 11.0 19.0 0.00 0.00 0.00 59 1015.9
20260830193225 71 341 10.0 20.0 0.00 0.00 0.00 59 1015.9
20260830192725 72 341 9.0 20.0 0.00 0.00 0.00 57 1015.9
20260830192225 72 331 10.0 20.0 0.00 0.00 0.00 56 1015.9
20260830191725 73 340 14.0 17.0 0.00 0.00 0.00 55 1016.0
20260830191225 74 344 8.0 17.0 0.00 0.00 0.00 53 1016.0
20260830190725 74 340 11.0 17.0 0.00 0.00 0.00 52 1016.0
20260830190225 74 352 9.0 15.0 0.00 0.00 0.00 50 1016.1
20260830185725 75 357 8.0 14.0 0.00 0.00 0.00 48 1016.2
20260830185225 76 352 7.0 15.0 0.00 0.00 0.00 48 1016.2
20260830184725 75 343 7.0 15.0 0.00 0.00 0.00 47 1016.2
20260830184225 76 343 9.0 15.0 0.00 0.00 0.00 45 1016.3
20260830183726 76 340 2.0 13.0 0.00 0.00 0.00 44 1016.3
20260830183225 77 354 5.0 13.0 0.00 0.00 0.00 44 1016.3
20260830182725 77 354 7.0 9.0 0.00 0.00 0.00 43 1016.3
20260830182225 77 345 7.0 9.0 0.00 0.00 0.00 42 1016.4
20260830181725 77 330 5.0 9.0 0.00 0.00 0.00 43 1016.4
20260830181225 77 338 2.0 9.0 0.00 0.00 0.00 43 1016.4
20260830180725 77 347 4.0 8.0 0.00 0.00 0.00 43 1016.5
20260830180225 77 330 5.0 8.0 0.00 0.00 0.00 43 1016.4
20260830175725 77 340 0.0 8.0 0.00 0.00 0.00 44 1016.4
20260830175225 77 348 1.0 8.0 0.00 0.00 0.00 44 1016.5
20260830174727 77 340 0.0 8.0 0.00 0.00 0.00 45 1016.5
20260830174225 77 334 3.0 7.0 0.00 0.00 0.00 44 1016.5
20260830173725 77 0 0.0 0.0 0.00 0.00 0.00 46 1016.5
20260830173225 77 0 0.0 0.0 0.00 0.00 0.00 46 1016.6
20260830172725 77 0 0.0 0.0 0.00 0.00 0.00 46 1016.5
20260830172225 77 0 0.0 0.0 0.00 0.00 0.00 46 1016.5
20260830171725 76 0 0.0 0.0 0.00 0.00 0.00 47 1016.5
20260830171225 76 0 0.0 0.0 0.00 0.00 0.00 47 1016.5
20260830170725 76 0 0.0 5.0 0.00 0.00 0.00 49 1016.4
20260830170225 75 333 0.0 5.0 0.00 0.00 0.00 51 1016.5
20260830165725 74 336 1.0 5.0 0.00 0.00 0.00 53 1016.5
20260830165225 73 341 3.0 4.0 0.00 0.00 0.00 56 1016.5
20260830164725 72 0 0.0 3.0 0.00 0.00 0.00 58 1016.5
20260830164225 71 82 0.0 3.0 0.00 0.00 0.00 61 1016.5
20260830163725 70 0 0.0 0.0 0.00 0.00 0.00 61 1016.5
20260830163225 69 0 0.0 0.0 0.00 0.00 0.00 64 1016.5
20260830162725 68 0 0.0 6.0 0.00 0.00 0.00 69 1016.7
20260830162225 66 63 0.0 6.0 0.00 0.00 0.00 69 1016.6
20260830161725 65 70 3.0 6.0 0.00 0.00 0.00 66 1016.6
20260830161225 65 56 2.0 6.0 0.00 0.00 0.00 69 1016.7
20260830160725 64 71 0.0 6.0 0.00 0.00 0.00 73 1016.7
20260830160225 63 92 0.0 6.0 0.00 0.00 0.00 74 1016.7
20260830155725 62 0 0.0 6.0 0.00 0.00 0.00 74 1016.7
20260830155225 61 86 0.0 6.0 0.00 0.00 0.00 74 1016.7
20260830154725 61 0 0.0 7.0 0.00 0.00 0.00 75 1016.8
20260830154225 60 64 0.0 7.0 0.00 0.00 0.00 76 1016.7
20260830153725 60 67 1.0 7.0 0.00 0.00 0.00 77 1016.7
20260830153225 60 0 0.0 0.0 0.00 0.00 0.00 80 1016.7
20260830152725 59 0 0.0 0.0 0.00 0.00 0.00 81 1016.7
20260830152225 59 0 0.0 0.0 0.00 0.00 0.00 81 1016.7
20260830151725 58 0 0.0 4.0 0.00 0.00 0.00 82 1016.7
20260830151225 58 63 0.0 4.0 0.00 0.00 0.00 83 1016.7
20260830150725 58 58 0.0 4.0 0.00 0.00 0.00 84 1016.7
20260830150225 57 0 0.0 0.0 0.00 0.00 0.00 86 1016.7
20260830145725 57 0 0.0 0.0 0.00 0.00 0.00 87 1016.7
20260830145225 57 0 0.0 0.0 0.00 0.00 0.00 86 1016.8
20260830144725 57 0 0.0 0.0 0.00 0.00 0.00 89 1016.8
20260830144225 57 0 0.0 0.0 0.00 0.00 0.00 90 1016.8
20260830143725 56 0 0.0 0.0 0.00 0.00 0.00 92 1016.7
20260830143225 55 0 0.0 0.0 0.00 0.00 0.00 92 1016.7
20260830142725 54 0 0.0 0.0 0.00 0.00 0.00 92 1016.7
20260830142225 54 0 0.0 0.0 0.00 0.00 0.00 91 1016.7
20260830141725 53 0 0.0 0.0 0.00 0.00 0.00 91 1016.7
20260830141225 53 0 0.0 0.0 0.00 0.00 0.00 92 1016.7
20260830140725 53 0 0.0 0.0 0.00 0.00 0.00 93 1016.7
20260830140225 53 0 0.0 0.0 0.00 0.00 0.00 93 1016.7
20260830135725 53 0 0.0 0.0 0.00 0.00 0.00 93 1016.7
20260830135225 53 0 0.0 0.0 0.00 0.00 0.00 93 1016.8
20260830134725 53 0 0.0 0.0 0.00 0.00 0.00 93 1016.7
20260830134225 53 0 0.0 0.0 0.00 0.00 0.00 93 1016.6
20260830133725 53 0 0.0 0.0 0.00 0.00 0.00 93 1016.6
20260830133225 53 0 0.0 0.0 0.00 0.01 0.00 93 1016.6
20260830132725 53 0 0.0 0.0 0.00 0.01 0.00 93 1016.6
20260830132225 53 0 0.0 0.0 0.00 0.01 0.00 92 1016.6
20260830131725 53 0 0.0 0.0 0.00 0.01 0.00 92 1016.6
20260830131225 53 0 0.0 0.0 0.00 0.01 0.00 92 1016.5
20260830130930 55 0 0.0 0.0 0.00 0.01 0.00 91 1016.3
20260830130927 56 0 0.0 0.0 0.00 0.01 0.00 92 1016.3
20260830130725 53 0 0.0 0.0 0.00 0.01 0.00 92 1016.5
20260830130225 53 0 0.0 0.0 0.00 0.01 0.00 92 1016.6
20260830125725 54 0 0.0 0.0 0.00 0.01 0.00 92 1016.6
20260830125225 54 0 0.0 0.0 0.00 0.01 0.00 91 1016.6
20260830124725 54 0 0.0 0.0 0.00 0.01 0.00 92 1016.5
20260830124225 54 0 0.0 0.0 0.00 0.01 0.00 91 1016.4
20260830123725 54 0 0.0 0.0 0.00 0.01 0.00 91 1016.5
20260830123225 54 0 0.0 0.0 0.00 0.01 0.00 91 1016.5
20260830122725 55 0 0.0 0.0 0.00 0.01 0.00 91 1016.4
20260830122225 55 0 0.0 0.0 0.00 0.01 0.00 91 1016.4
20260830121725 55 0 0.0 0.0 0.00 0.01 0.00 91 1016.3
20260830121225 55 0 0.0 0.0 0.00 0.01 0.00 91 1016.3
20260830120725 56 0 0.0 0.0 0.00 0.01 0.00 91 1016.3
20260830120225 56 0 0.0 0.0 0.00 0.01 0.00 92 1016.3
20260830115726 55 0 0.0 0.0 0.00 0.01 0.00 92 1016.3
20260830115225 55 0 0.0 0.0 0.00 0.01 0.00 94 1016.3
20260830114725 55 0 0.0 0.0 0.00 0.01 0.00 95 1016.2
20260830114228 54 0 0.0 0.0 0.00 0.01 0.00 95 1016.3
20260830113725 54 0 0.0 0.0 0.00 0.01 0.00 95 1016.3
20260830113225 54 0 0.0 0.0 0.00 0.02 0.00 95 1016.4
20260830112725 54 0 0.0 0.0 0.00 0.02 0.00 94 1016.3
20260830112225 54 0 0.0 0.0 0.00 0.02 0.00 94 1016.4
20260830111725 55 0 0.0 0.0 0.00 0.02 0.00 93 1016.3
20260830111225 55 0 0.0 0.0 0.00 0.02 0.00 93 1016.3
20260830110725 55 0 0.0 0.0 0.00 0.02 0.00 93 1016.3
20260830110225 55 0 0.0 0.0 0.00 0.02 0.00 93 1016.3
20260830105725 55 0 0.0 0.0 0.00 0.02 0.00 93 1016.3
20260830105225 55 0 0.0 0.0 0.00 0.02 0.00 93 1016.3
20260830104725 55 0 0.0 0.0 0.00 0.02 0.00 93 1016.3
20260830104225 55 0 0.0 0.0 0.00 0.02 0.00 92 1016.3
20260830103725 55 0 0.0 0.0 0.00 0.02 0.00 92 1016.4
20260830103225 55 0 0.0 0.0 0.00 0.02 0.00 92 1016.4
20260830102725 55 0 0.0 0.0 0.00 0.02 0.00 92 1016.3
20260830102225 56 0 0.0 0.0 0.00 0.02 0.00 92 1016.3
20260830101725 56 0 0.0 0.0 0.00 0.02 0.00 91 1016.3
20260830101225 56 0 0.0 0.0 0.00 0.02 0.00 91 1016.3
20260830100725 56 0 0.0 0.0 0.00 0.02 0.00 91 1016.3
20260830100225 56 0 0.0 0.0 0.00 0.02 0.00 92 1016.3
20260830095725 56 0 0.0 0.0 0.00 0.02 0.00 92 1016.3
20260830095225 56 0 0.0 0.0 0.00 0.02 0.00 91 1016.2